Location: Dittelbrunn
(50.0738°N, 10.2196°E)
Time: 04:53:52
(UTC+00:00)

MetOp-B - Pass Details

Date: 18 September 2020
Orbit: 819 x 821 km, 98.7° (Epoch: 20 October)

Event Time Altitude Azimuth Distance (km) Brightness Sun altitude
Exits shadow 19:41:03 47° 119° (ESE) 1,086 4.3 -21.5°
Maximum altitude 19:42:19 59° 69° (ENE) 944 4.2 -21.7°
Drops below altitude 10° 19:47:35 10° 351° (N) 2,428 7.1 -22.4°
Sets 19:49:58 0° 348° (NNW) 3,365 8.0 -22.7°
